Location: Squamish
(49.7000°N, 123.1500°W)
Time: 11:50:42
(UTC-08:00)

Daily predictions for brighter satellites

Satellite Brightness Start Highest point End
(mag) Time Altitude Azimuth Time Altitude Azimuth Time Altitude Azimuth
Cosmos 2251 Rocket 4.5 16:44:50 10° N 16:49:25 27° NE 16:53:55 10° ESE
CSL-04 Debris 4.2 16:45:00 10° SSE 16:50:23 84° ENE 16:55:49 10° NNW
ERBS 2.9 16:47:07 10° WSW 16:50:27 48° NNW 16:53:47 10° NE
YAOGAN 1 3.2 16:48:24 10° SE 16:52:16 33° ENE 16:56:11 10° N
ATLAS 2AS CENTAUR R/B 3.2 16:44:38 10° NW 16:52:39 54° NE 17:00:19 10° ESE
CSL-04 Rocket 3.9 16:47:19 10° SSE 16:52:46 82° WSW 16:58:21 10° NNW
Meteor 1-27 Rocket 3.9 16:51:13 10° S 16:56:57 60° E 17:02:36 10° NNE
Cosmos 2344 4.2 16:50:13 10° WSW 16:57:58 61° NW 17:07:31 10° NE
ASTEX 1 3.5 16:54:37 10° N 16:59:40 88° W 17:04:41 10° S
SL-27 R/B 3.7 16:56:55 10° N 16:59:57 23° ENE 17:02:58 10° ESE
Cosmos 1378 Rocket 3.8 16:59:30 10° SSE 17:03:37 46° E 17:07:45 10° NNE
Cosmos 1782 3.5 17:00:30 10° SSW 17:04:28 59° WNW 17:08:29 10° N
Cosmos 1844 Rocket 3.9 17:00:40 10° SSE 17:04:52 22° E 17:09:06 10° NE
Cosmos 2181 Rocket 4.4 17:00:27 10° SSE 17:06:25 45° E 17:12:28 10° NNE
BREEZE-M DEB (TANK) 3.7 17:05:25 10° SSW 17:07:00 16° SSE 17:08:31 10° ESE
MOS 1 4.3 17:02:13 10° SSE 17:07:47 62° ENE 17:13:23 10° N
Cosmos 1455 Rocket 4.1 17:06:20 10° NNE 17:09:57 24° ENE 17:13:33 10° ESE
GEOS 3 Rocket 3.6 17:10:28 10° ESE 17:15:28 58° NE 17:20:31 10° NW
Cosmos 1048 Rocket 4.2 17:15:28 10° NNW 17:20:47 80° WSW 17:26:08 10° SSE
Cosmos 2341 Rocket 4.0 17:16:00 10° N 17:22:16 86° E 17:28:29 10° S
Cosmos 1295 Rocket 4.4 17:16:33 10° N 17:22:43 69° ENE 17:28:46 10° SSE
Nadezhda 1 Rocket 4.3 17:16:54 10° SSW 17:22:57 71° WNW 17:29:06 10° N
Cosmos 158 Rocket 4.0 17:17:51 10° NNW 17:23:18 79° ENE 17:28:37 10° SSE
COSMOS 2406 3.2 17:18:39 10° NNW 17:24:24 89° NE 17:30:09 10° SSE
CORIOLIS 4.1 17:20:04 10° SSE 17:25:27 69° ENE 17:30:50 10° N
CZ-3B DEB 3.5 17:25:37 10° SSE 17:29:17 25° ESE 17:34:11 15° ENE
CZ-3A R/B 3.4 17:25:02 10° SW 17:29:40 71° SE 17:49:44 14° ENE
Cosmos 2278 Rocket 3.6 17:27:08 10° SE 17:30:36 17° E 17:31:58 16° E
Cosmos 1484 Rocket 3.3 17:30:09 10° SE 17:33:35 34° ENE 17:37:00 10° N
SL-16 R/B 4.4 17:28:55 10° N 17:33:50 26° NW 17:38:45 10° WSW
Meteor 1-5 Rocket 4.1 17:29:44 10° N 17:35:07 80° ENE 17:40:37 10° SSE
ATLAS CENTAUR R/B 3.4 17:33:21 10° W 17:37:06 23° NNW 17:40:40 10° NNE
CZ-2C R/B 2.5 17:32:52 10° SSE 17:37:50 87° WSW 17:43:00 10° NNW
Genesis I 4.3 17:35:35 10° NNW 17:38:59 27° NE 17:40:19 22° ENE
COSMOS 2487 4.3 17:36:35 10° N 17:38:00 15° NNE 17:38:00 15° NNE
SPOT 3 Rocket 3.7 17:35:04 10° SSE 17:40:16 79° WSW 17:45:29 10° NNW
Cosmos 1238 Rocket 3.2 17:41:49 10° SSE 17:43:57 25° ESE 17:43:57 25° ESE
CRYOSAT 2 4.3 17:39:38 10° N 17:44:34 77° E 17:49:29 10° S
Cosmos 1536 3.8 17:44:56 10° NNW 17:48:53 50° W 17:52:49 10° S
Cosmos 2082 Rocket 3.0 17:45:27 10° NNW 17:50:23 30° NE 17:52:45 22° E
Okean 1 4.2 17:50:13 10° SSE 17:53:39 27° E 17:53:41 27° E
IDEFIX/ARIANE 42P 3.0 17:49:29 10° S 17:54:40 66° WSW 17:59:51 10° NNW
COSMOS 2441 4.3 17:50:24 10° SSE 17:55:15 77° ENE 18:00:10 10° NNW
COSMO-SKYMED 1 3.1 17:53:45 23° NE 17:55:54 37° E 17:59:55 10° SSE
Cosmos 1544 Rocket 3.5 17:53:42 10° N 17:58:11 84° E 18:02:38 10° S
Cosmos 1833 Rocket 3.5 17:53:30 10° NNW 17:58:26 29° NE 17:59:58 26° ENE
USA 32 3.9 17:53:33 10° S 17:58:44 73° E 18:03:58 10° N
Cosmos 1500 3.7 17:56:05 10° N 17:59:36 35° ENE 17:59:53 34° E
Spot 2 Rocket 4.4 18:01:57 26° NE 18:01:57 26° NE 18:05:56 10° N
Cosmos 864 Rocket 4.4 17:56:06 10° N 18:02:23 75° E 18:08:41 10° SSE
SL-24 DEB 4.3 17:59:34 10° NNE 18:04:18 57° E 18:08:58 10° S
Cosmos 1975 Rocket 3.3 18:01:07 10° SSW 18:05:25 67° WNW 18:09:45 10° N
APEX 4.3 18:01:22 10° SW 18:07:53 77° WNW 18:11:45 18° NNE
SMAP 4.3 18:05:56 10° S 18:10:22 44° W 18:14:50 10° NNW
Meteor 1-18 Rocket 4.2 18:05:46 10° S 18:11:17 60° E 18:16:57 10° NNE
Cosmos 372 Rocket 4.1 18:06:59 10° SSW 18:12:14 79° WNW 18:16:37 15° NNE
CZ-4 R/B 3.6 18:10:26 10° SSW 18:14:04 29° W 18:17:44 10° NW
Thor Agena Rocket 3.9 18:09:52 10° N 18:15:00 65° WNW 18:20:10 10° SSW
MSX 4.3 18:12:27 10° S 18:18:09 64° WSW 18:23:53 10° NNW
USA 234 3.3 18:17:19 27° NE 18:21:11 73° NNW 18:27:42 10° WSW
Cosmos 1812 2.5 18:17:44 10° S 18:21:35 73° E 18:22:34 47° NNE
Cosmos 1536 Rocket 3.5 18:17:29 10° S 18:21:53 62° E 18:23:38 34° NNE
Cosmos 2263 Rocket 3.6 18:16:51 10° WSW 18:21:53 33° NW 18:26:50 11° NNE
Abrixas 2.7 18:19:07 10° W 18:21:48 64° SW 18:21:48 64° SW
METEOR-M 4.2 18:17:01 10° SE 18:22:11 53° ENE 18:27:24 10° N
Cosmos 1125 Rocket 4.4 18:17:06 10° SW 18:22:13 48° WNW 18:27:04 12° NNE
Cosmos 494 Rocket 4.1 18:19:22 10° NNW 18:24:36 76° WSW 18:29:50 10° SSE
NOAA 12 4.0 18:19:34 10° SSE 18:24:47 65° ENE 18:30:01 10° N
SKYMED 3 4.4 18:24:07 33° NNE 18:26:03 73° ESE 18:30:22 10° S
ERBS 4.0 18:24:57 10° WNW 18:27:33 23° NNW 18:27:33 23° NNW
NOSS 3-4 (A) 4.1 18:21:42 10° NW 18:28:09 43° NNE 18:30:10 36° ENE
NOSS 3-4 (C) 4.1 18:21:48 10° NW 18:28:15 43° NNE 18:30:15 36° ENE
Cosmos 1975 2.8 18:25:12 10° N 18:29:20 88° WSW 18:33:23 10° S
Meteor 2-14 Rocket 4.5 18:23:48 10° N 18:29:53 56° ENE 18:35:54 10° SSE
BREEZE M DEB (TANK) 3.0 18:28:49 10° W 18:32:03 81° S 18:34:57 34° ESE
Cosmos 2251 Rocket 4.1 18:26:48 10° NNW 18:32:06 59° WSW 18:37:18 10° S
Resurs 01 Rocket 3.6 18:37:47 16° N 18:37:47 16° N 18:38:45 10° N
SL-27 R/B 4.3 18:31:57 10° NW 18:35:18 33° WSW 18:38:36 10° S
ALOS 4.3 18:40:53 15° N 18:40:53 15° N 18:41:42 10° N
NOSS 3-3 (A) 4.3 18:33:21 10° S 18:39:12 43° ESE 18:39:53 42° ESE
NOSS 3-3 (C) 4.3 18:33:28 10° S 18:39:18 43° ESE 18:39:57 42° ESE
ATLAS 2AS CENTAUR R/B 3.7 18:35:59 10° NW 18:43:52 56° WSW 18:51:17 10° SSE
SKYMED 2 3.6 18:42:22 36° N 18:44:06 76° WNW 18:48:25 10° SSW
Meteor 2-21 Rocket 4.3 18:38:15 10° N 18:44:30 77° E 18:50:40 10° SSE
BREEZE-M DEB (TANK) 4.2 18:18:54 10° W 18:45:08 75° N 18:47:44 42° ENE
ISS -1.6 18:42:18 10° SW 18:44:12 29° SSW 18:44:12 29° SSW
Cosmos 1455 Rocket 4.4 18:43:50 10° NNW 18:47:57 40° W 18:52:02 10° SSW
Cosmos 1844 Rocket 2.9 18:42:38 10° SW 18:48:13 69° WNW 18:50:53 32° NNE
Meteor 2-16 Rocket 4.3 18:44:49 10° N 18:50:55 71° ENE 18:56:59 10° SSE
DMSP B5D1-3 4.4 18:48:46 35° NNE 18:51:00 89° ESE 18:56:09 10° SSW
Timation 2 Rocket 4.0 18:47:55 10° NNW 18:54:43 83° ENE 18:58:19 31° SE
Cosmos 1535 Rocket 4.4 18:49:11 10° N 18:55:32 68° ENE 19:01:46 10° SSE
Cosmos 1844 3.7 18:50:04 10° SSW 18:55:39 79° WNW 18:57:20 46° NNE
BREEZE M DEB (TANK) 4.2 18:57:18 10° SW 19:01:08 24° S 19:01:08 24° S
Cosmos 1934 Rocket 4.1 18:56:28 10° N 19:01:38 55° NE 19:01:38 55° NE
FengYun 1-2 T 4.1 19:04:46 76° E 19:04:53 76° ENE 19:10:34 10° NNW
Cosmos 2278 Rocket 2.1 19:08:14 10° SSW 19:13:52 88° W 19:13:52 88° W
Cosmos 2239 Rocket 4.4 19:08:19 10° N 19:14:36 89° W 19:20:48 10° S
Meteor 1-13 Rocket 4.2 19:10:33 10° S 19:15:32 71° S 19:15:32 71° S
ATLAS CENTAUR R/B 4.1 19:16:04 10° NNW 19:17:04 11° NNW 19:17:04 11° NNW
Cosmos 1821 Rocket 3.9 19:16:18 10° N 19:22:27 83° W 19:24:16 48° S
COSMO-SKYMED 1 4.5 19:30:58 25° NW 19:31:56 28° WNW 19:35:37 10° WSW
Cosmos 2082 Rocket 2.6 19:29:19 10° NW 19:34:39 61° W 19:34:39 61° W
Cosmos 1833 Rocket 3.3 19:37:12 10° NW 19:41:42 52° WNW 19:41:42 52° WNW
CZ-3B DEB 3.3 19:57:07 10° WSW 20:02:53 79° NNW 20:03:16 77° N
USA 234 4.0 20:04:40 46° NNW 20:04:40 46° NNW 20:10:01 10° WNW
NOSS 3-4 (A) 4.5 20:12:39 10° NW 20:17:38 49° WNW 20:17:38 49° WNW
NOSS 3-4 (C) 4.5 20:12:46 10° NW 20:17:43 49° WNW 20:17:43 49° WNW
